Yuma MCAS, AZ

8:11 AM MST on January 18, 2018 (GMT -0700)
Yuma Marine Corps Air Station

Weather History for KNYL - September, 2012

Change the Weather History Date:

Friday, September 7, 2012

  Actual Average Record
Temperature  
Mean Temperature 93 °F 92 °F  
Max Temperature 100 °F 104 °F 114 °F (1979)
Min Temperature 85 °F 80 °F 56 °F (1911)
Degree Days  
Heating Degree Days 0 0  
Month to date heating degree days 0 0  
Since 1 July heating degree days 0 0  
Cooling Degree Days 28 27  
Month to date cooling degree days 205 192  
Year to date cooling degree days 3761 3645  
Growing Degree Days 42 (Base 50)    
Moisture  
Dew Point 67 °F    
Average Humidity 48    
Maximum Humidity 65    
Minimum Humidity 31    
Precipitation  
Precipitation 0.00 in 0.02 in 1.85 in (1926)
Month to date precipitation T 0.12  
Year to date precipitation 2.03 2.21  
Sea Level Pressure  
Sea Level Pressure 29.85 in    
Wind  
Wind Speed 6 mph (SE)    
Max Wind Speed 13 mph    
Max Gust Speed 16 mph    
Visibility 10 miles    
Events      
T = Trace of Precipitation, MM = Missing Value Source: NWS Daily Summary

Daily Weather History Graph

Daily Weather History Graph

Search for Another Location

Airport or City:

Trip Planner

Search our weather history database for the weather conditions in past years. The results will help you decide how hot, cold, wet, or windy it might be!

Date:

Astronomy

Sep. 07, 2012 Rise Set
Actual Time 6:17 AM MST 6:54 PM MST
Civil Twilight 5:52 AM MST 7:19 PM MST
Nautical Twilight 5:23 AM MST 7:48 PM MST
Astronomical Twilight 4:53 AM MST 8:18 PM MST
Moon 11:17 PM MST (9/7) 12:49 PM MST (9/7)
Length of Visible Light 13h 26m
Length of Day
12h 37m
Waning Gibbous, 57% of the Moon is Illuminated
Sep 7
Waning Gibbous
Sep 8
Last Quarter
Sep 15
New
Sep 22
First Quarter
Sep 29
Full

Hourly Weather History & Observations

Time (MST) Temp. Heat Index Dew Point Humidity Pressure Visibility Wind Dir Wind Speed Gust Speed Precip Events Conditions
12:55 AM 88.0 °F 91.4 °F 68.0 °F 51% 29.84 in 10.0 mi South 8.1 mph - N/A   Partly Cloudy
1:55 AM 87.1 °F 89.9 °F 66.9 °F 51% 29.83 in 10.0 mi South 6.9 mph - N/A   Partly Cloudy
2:55 AM 87.1 °F 89.9 °F 66.9 °F 51% 29.83 in 10.0 mi SSW 5.8 mph - N/A   Scattered Clouds
3:55 AM 84.9 °F 90.1 °F 71.1 °F 63% 29.83 in 10.0 mi South 4.6 mph - N/A   Clear
4:55 AM 86.0 °F 92.2 °F 72.0 °F 63% 29.84 in 10.0 mi SSE 5.8 mph - N/A   Clear
5:55 AM 86.0 °F 90.7 °F 70.0 °F 59% 29.86 in 10.0 mi Calm Calm - N/A   Mostly Cloudy
6:55 AM 86.0 °F 89.4 °F 68.0 °F 55% 29.88 in 10.0 mi SE 4.6 mph - N/A   Mostly Cloudy
7:55 AM 87.1 °F 90.6 °F 68.0 °F 53% 29.90 in 10.0 mi ESE 5.8 mph - N/A   Mostly Cloudy
8:55 AM 89.1 °F 93.7 °F 69.1 °F 52% 29.91 in 10.0 mi SSE 6.9 mph - N/A   Scattered Clouds
9:55 AM 91.9 °F 95.9 °F 68.0 °F 45% 29.92 in 10.0 mi SSE 3.5 mph - N/A   Mostly Cloudy
10:55 AM 93.9 °F 97.0 °F 66.0 °F 40% 29.92 in 10.0 mi SSE 8.1 mph - N/A   Mostly Cloudy
11:55 AM 95.0 °F 97.4 °F 64.9 °F 37% 29.91 in 10.0 mi SE 5.8 mph - N/A   Mostly Cloudy
12:55 PM 97.0 °F 101.0 °F 66.9 °F 37% 29.89 in 10.0 mi Calm Calm - N/A   Mostly Cloudy
1:55 PM 98.1 °F 101.2 °F 64.9 °F 34% 29.87 in 10.0 mi Variable 3.5 mph - N/A   Mostly Cloudy
2:55 PM 99.0 °F 102.3 °F 64.9 °F 33% 29.84 in 10.0 mi ENE 12.7 mph 16.1 mph N/A   Mostly Cloudy
3:55 PM 99.0 °F 100.5 °F 63.0 °F 30% 29.82 in 10.0 mi East 5.8 mph - N/A   Mostly Cloudy
4:55 PM 99.0 °F 102.3 °F 64.9 °F 33% 29.82 in 10.0 mi East 8.1 mph - N/A   Mostly Cloudy
5:55 PM 97.0 °F 99.9 °F 64.9 °F 35% 29.81 in 10.0 mi ESE 3.5 mph - N/A   Mostly Cloudy
6:55 PM 97.0 °F 100.4 °F 66.0 °F 36% 29.80 in 10.0 mi ESE 4.6 mph - N/A   Mostly Cloudy
7:55 PM 93.9 °F 97.5 °F 66.9 °F 41% 29.83 in 10.0 mi SE 8.1 mph - N/A   Mostly Cloudy
8:55 PM 93.0 °F 95.9 °F 66.0 °F 41% 29.83 in 10.0 mi SSE 10.4 mph - N/A   Mostly Cloudy
9:55 PM 91.0 °F 95.2 °F 68.0 °F 47% 29.84 in 10.0 mi SSE 6.9 mph - N/A   Mostly Cloudy
10:55 PM 90.0 °F 92.8 °F 66.9 °F 46% 29.83 in 10.0 mi South 5.8 mph - N/A   Mostly Cloudy
11:55 PM 89.1 °F 92.1 °F 66.9 °F 48% 29.82 in 10.0 mi South 4.6 mph - N/A   Mostly Cloudy